Location:  
MeteoStar


Sort by weather type Sort by elevation Sort by visibility Sort from west to east north Sort from north to south Alphabetically Sort from strongest wind speed Sort from lowest to highest pressure Sort from highest to lowest dew point temperature Sort coolest temperatures to warmest Sort warm temperatures to coolest
 Metric

Current Observations for United Kingdom sorted from coolest to warmest

Aonach Mor10:00ZNot Avail.45 4512S 26 Gusting to 44 363707
Cairngorm10:00ZNot Avail.46 467S 40 Gusting to 55 354084
Great Dun Fell10:00ZNot Avail.51 5020SW 24 Gusting to 27 442778
Glen Ogle10:00ZNot Avail.52 5118S 20 Gusting to 31 461850
Fair Isle10:00ZClear53 N/A101008.5ESE 8 187
Lerwick10:00ZLight Drizzle54 54101009.7SSE 9 51269
Sumburgh Cape 10:20ZFog55 550.371008.1SE 13 5516
Scatsa / Shetland Island10:20ZMist55 550.621008.1SE 23 5572
Baltasound10:00ZNot Avail.55 55101010.2SE 13 5549
Stornoway10:00ZLight Showers56 5631003.7S 16 5629
Tiree10:00ZRain56 5621005.2SSE 23 Gusting to 30 5639
Lough Fea10:00ZRain57 561.751008.7S 11 57738
Glenanne10:00ZRain57 5551009.4SSW 11 57528
Isle Of Man / Ronaldsway Airport10:00ZLight Rain58 5851011.7SSW 8 5855
Machrihanish10:00ZNot Avail.58 5661008.7SSE 12 5842
South Uist Range10:00ZRain58 5761002.9S 23 Gusting to 32 5832
Tulloch Bridge10:00ZLight Rain58 54191008.2SSW 7 58777
Dundrennan10:00ZNot Avail.58 58181010.7S 13 58374
Ballypatrick Forest10:00ZLight Rain58 5691008.2SSW 9 58511
Belfast / Aldergrove Airport10:00ZLight Rain59 56121009.4S 13 59265
Benbecula10:20ZRain59 5731003.1S 24 5919
Loch Glascanoch10:00ZLight Rain59 52201005.7ESE 8 59869
Castlederg10:00ZLight Rain59 5781006.9S 11 59167
Portglenone10:00ZRain59 5871008.0SSE 12 59209
West Freugh10:00ZLight Rain60 5861010.7S 11 6036
Aviemore10:00ZLight Rain60 5471006.7SSW 8 Gusting to 20 60721
Eskdalemuir10:00ZRain/Drizzle60 5641011.2S 13 60793
Capel Curig10:00ZNot Avail.60 54141013.5SW 20 Gusting to 28 60708
Aberdaron10:00ZNot Avail.60 58121014.5SSW 14 60311
Lake Vyrnwy10:00ZNot Avail.60 54201013.9S 15 601181
Belfast / Harbour10:20ZLight Rain61 55121009.1S 10 6116
Eglinton / Londonderr10:20ZLight Rain61 5761006.1SSW 14 Gusting to 26 6129
Kirkwall Airport10:00ZNot Avail.61 57101006.7SSE 13 6168
Inverness / Dalcross10:20ZLight Rain61 57201007.1SW 5 6129
Glasgow Airport10:20ZMostly Cloudy61 55201009.1SSW 5 6126
Aultbea10:00ZLight Showers61 53121004.9S 16 6136
Inverbervie10:00ZNot Avail.61 58121009.4SSW 12 61439
Drumalbin10:00ZNot Avail.61 56201009.9SSW 12 61803
Saint Bees Head10:00ZNot Avail.61 57141011.9S 16 61406
Sennybridge10:00ZNot Avail.61 57111015.0WSW 8 611007
Wick10:00ZNot Avail.62 56201006.7SSE 11 62127
Strathallan10:00ZLight Showers62 55181009.5SW 8 62114
Valley10:00ZCloudy63 58151013.0SSW 17 633
Prestwick Airport10:20ZLight Rain63 57201010.1S 11 6365
Prestwick Rnas10:00ZLight Rain63 55121009.7S 11 6385
Shap10:00ZNot Avail.63 56251012.2SSW 13 63816
Camborne10:00ZCloudy63 56201016.2WNW 7 63285
Cardinham10:00ZNot Avail.63 56131015.7SW 5 63656
Culdrose10:00ZMostly Cloudy64 56201016.2SW 6 64255
Alderney / Channel Island10:20ZClear64 57111016.1WSW 7 64232
Guernsey Airport10:00ZMostly Cloudy64 57151016.5W 6 64334
Jersey Airport10:20ZClear64 57151016.1W 8 64275
Edinburgh Airport10:20ZClear64 59201009.1SSW 9 64134
Tain Range10:00ZLight Showers64 56201006.7SSW 8 6413
Aberporth10:00ZNot Avail.64 54201014.5SW 10 64436
Keswick10:00ZLight Rain64 56201012S 3 64265
Spadeadam10:00ZNot Avail.64 54201011.0SW 16 Gusting to 25 64935
Warcop Range10:00ZNot Avail.64 55201012.0WSW 9 64744
Liscombe10:00ZNot Avail.64 56131015.5WSW 5 641141
Isle Of Portland10:00ZNot Avail.64 59121016.2SW 7 64173
Aberdeen / Dyce10:00ZNot Avail.65 57201008.9SSW 12 65213
Charterhall10:00ZNot Avail.65 58201010.2SW 9 65367
Redesdale10:00ZNot Avail.65 55141011SSW 10 65692
Langdon Bay10:00ZNot Avail.65 58251016SSW 4 65383
Saint Catherines Point10:00ZNot Avail.65 57121015.7W 10 6552
Manchester Airport10:20ZClear66 5461014.1SW 5 66226
Cardiff-Wales Airport10:20ZPartly Cloudy66 57121015.1WNW 9 66219
Bristol / Lulsgate 10:20ZPartly Cloudy66 55121015.0WSW 8 66620
Scilly; Saint MaryS10:00ZNot Avail.66 57201016.5WSW 8 66101
Shoreham Airport10:00ZNot Avail.66 57151015.5S 6 666
Walney Island10:00ZNot Avail.66 58201012.5S 10 6649
Pembrey Sands10:00ZNot Avail.66 60251015.2SSW 9 669
Shawbury10:00ZCloudy66 56201014.0SW 11 66249
Kinloss10:00ZClear66 55181006.9SSW 12 6622
Leuchars10:00ZClear66 60201009.4SW 9 6639
Trawscoed10:00ZNot Avail.66 50251014.5SSW 5 66206
Mumbles10:00ZNot Avail.66 60251016.0SW 11 66114
Dunkeswell Aerodrome10:00ZNot Avail.66 55131015.5SW 5 66826
Chivenor10:00ZNot Avail.67 58201015.7W 6 6726
Lossiemouth10:00ZCloudy67 56251007SSW 9 6742
Carlisle10:00ZNot Avail.67 55351011.4N 6791
Fylingdales10:00ZNot Avail.67 5414SSW 11 67859
Crosby10:00ZNot Avail.67 56201013.2SSW 10 6726
Milford Haven10:00ZNot Avail.67 58251014.7SW 7 67144
Lyneham10:00ZNot Avail.68 59201015S 4 68475
Liverpool Airport 10:20ZClear68 59121013.1S 7 6885
Southampton / Weather Centre10:20ZClear68 54111015.1SSW 4 6829
Blackpool Airport10:00ZNot Avail.68 5625SW 13 6832
Leeds And Bradford10:20ZClear68 52201013.0SSW 8 68682
Hawarden10:00ZNot Avail.68 57201013.7SSW 4 6832
Dundee / Riverside10:20ZPartly Cloudy68 590.621009.1WSW 12 6813
Exeter Airport10:20ZClear68 57251015.1S 4 6898
Bridlington Mrsc10:00ZNot Avail.68 57141013.0E 4 6849
Shobdon10:00ZNot Avail.68 55201014.5WSW 6 68324
Kenley10:00ZNot Avail.68 50251015.0SSW 8 68557
Plymouth10:00ZNot Avail.69 59131016.2SSW 6 69164
Boscombe Down10:00ZCloudy69 57201015.2SSW 6 69406
Yeovilton10:00ZCloudy69 56121015.5WSW 3 6975
Bournemouth Airport10:00ZNot Avail.69 56111015.5WSW 6 6936
Middle Wallop10:00ZCloudy69 56121015.0WSW 5 69298
Bingley10:00ZNot Avail.69 53301012.7SSW 9 69859
Donna Nook10:00ZNot Avail.69 5891013.5E 7 6926
Little Rissington10:00ZNot Avail.69 57201014.0SW 8 69705
Birmingham / Airport10:20ZClear70 5561014.1SW 7 70324
Staverton Private 10:20ZClear70 5761014.1WSW 5 7095
Biggin Hill 10:20ZNot Avail.70 50151015.0S 8 70600
Lydd Airport 10:20ZNot Avail.70 57251016.1S 7 709
Newcastle 10:20ZNot Avail.70 5451011.1SSW 8 70265
Tees-Side10:20ZClear70 5551012.1S 11 70121
Boulmer10:00ZNot Avail.70 56201011S 11 7075
Brize Norton10:00ZCloudy70 57121014.5SW 4 70288
Nottingham Weather Centre10:00ZNot Avail.70 55111013.7WSW 6 70383
Weybourne10:00ZNot Avail.70 59201014.0NNE 4 7068
Pershore10:00ZNot Avail.70 58201014.7WSW 5 70104
High Wicombe Hqstc10:00ZNot Avail.70 60171014.5SW 5 70669
Larkhill10:00ZCloudy70 57121015SSW 5 70433
Herstmonceux10:00ZNot Avail.70 57171015.5S 4 70170
Farnborough10:00ZNot Avail.71 56351014.7SW 7 71213
Odiham10:00ZCloudy71 55151014.9SW 7 71403
Leeming10:00ZCloudy71 56201012.5S 8 71131
Linton-On-Ouse10:00ZCloudy71 56121012.7SSW 9 7152
Wainfleet10:00ZNot Avail.71 61101013.7S 8 719
Loftus Samos10:00ZNot Avail.71 57141012.0SSW 10 71190
Church Lawford10:00ZNot Avail.71 56251014.0SW 4 71351
Shoeburyness10:00ZNot Avail.71 53301015.0S 6 716
London / Gatwick Airport10:20ZNot Avail.72 54151015.1SW 6 72203
East Midlands10:20ZClear72 5751014.0WSW 9 72308
Benson10:00ZCloudy72 57151014.5SSW 6 72206
Manston10:00ZNot Avail.72 5881015.5SE 11 72180
Fairford Royal Air Force Base10:20ZCloudy72 57251014.1W 6 72285
Humberside10:20ZPartly Cloudy73 55251013.1S 5 73101
Bedford10:00ZNot Avail.73 58141014.0S 5 73278
London / Heathrow Airport10:00ZNot Avail.74 51251014.7S 6 7478
Wattisham10:00ZPartly Cloudy74 52251014.5SW 10 74285
Northolt10:00ZCloudy74 53201014.7SSW 6 74124
Waddington10:00ZCloudy74 56151013.4WSW 6 74223
Cranwell10:00ZCloudy74 55201013.5SW 8 74219
Marham10:00ZMostly Cloudy74 5891014.2SW 6 7475
Luton Airport 10:20ZClear75 50121014.0S 6 75524
London City Airport10:20ZClear75 50151014.1N 6 7516
Southend-On-Sea 10:20ZNot Avail.75 52251015.1S 10 7549
Norwich Weather Centre10:20ZClear75 59251014.1SW 5 7545
Cranfield10:20ZClear75 57251014.0S 9 75364
Mildenhall Royal Air Force Base09:56ZClear75 5981014.2WSW 6 7532
Coningsby Royal Air Force Base10:00ZCloudy75 5691013.5SSW 5 7522
Wittering10:20ZPartly Cloudy75 55201013.1S 7 75275
Holbeach10:00ZNot Avail.75 60251014SSW 7 759
Lakenheath Royal Air Force Base09:56ZClear76 57201013.7WSW 6 7632
Cambridge10:20ZNot Avail.77 54251014.1SSW 8 7749
Stansted Airport10:20ZClear77 52251015.1S 10 77347

Atlantic
Tropical Watch